TimePST,TemperatureF,Dew PointF,Humidity,Sea Level PressureIn,VisibilityMPH,Wind Direction,Wind SpeedMPH,Gust SpeedMPH,PrecipitationIn,Events,Conditions,WindDirDegrees,DateUTC
12:15 AM,48.2,46.4,93,30.00,5.0,Calm,Calm,-,0.01,Rain,Light Rain,0,2012-12-15 08:15:00
12:35 AM,48.2,46.4,93,29.99,5.0,Calm,Calm,-,0.01,Rain,Light Rain,0,2012-12-15 08:35:00
12:55 AM,48.2,48.2,100,29.99,5.0,Calm,Calm,-,0.03,Rain,Light Rain,0,2012-12-15 08:55:00
1:15 AM,48.2,48.2,100,29.98,7.0,Calm,Calm,-,0.01,Rain,Light Rain,0,2012-12-15 09:15:00
1:35 AM,48.2,48.2,100,29.98,10.0,North,3.5,-,0.01,,Overcast,360,2012-12-15 09:35:00
1:55 AM,48.2,48.2,100,29.97,9.0,Calm,Calm,-,0.02,,Overcast,0,2012-12-15 09:55:00
2:15 AM,48.2,48.2,100,29.96,9.0,NNE,4.6,-,N/A,Rain,Light Rain,20,2012-12-15 10:15:00
2:35 AM,48.2,48.2,100,29.96,10.0,North,4.6,-,N/A,,Overcast,360,2012-12-15 10:35:00
2:55 AM,48.2,48.2,100,29.94,8.0,East,4.6,-,N/A,,Overcast,80,2012-12-15 10:55:00
3:15 AM,48.2,48.2,100,29.95,10.0,NW,4.6,-,N/A,,Overcast,310,2012-12-15 11:15:00
3:35 AM,48.2,48.2,100,29.95,10.0,NW,4.6,-,N/A,,Overcast,310,2012-12-15 11:35:00
3:55 AM,48.2,48.2,100,29.95,10.0,NW,3.5,-,N/A,,Overcast,310,2012-12-15 11:55:00
4:15 AM,48.2,48.2,100,29.96,10.0,NW,3.5,-,N/A,,Overcast,310,2012-12-15 12:15:00
4:35 AM,48.2,48.2,100,29.96,10.0,WNW,3.5,-,N/A,,Mostly Cloudy,300,2012-12-15 12:35:00
4:55 AM,48.2,48.2,100,29.96,10.0,Calm,Calm,-,N/A,,Mostly Cloudy,0,2012-12-15 12:55:00
5:15 AM,48.2,48.2,100,29.97,10.0,NNW,5.8,-,N/A,,Overcast,340,2012-12-15 13:15:00
6:47 AM,48.2,48.2,100,29.99,0.9,Variable,5.8,-,N/A,Rain,Heavy Rain,0,2012-12-15 14:47:00
7:47 AM,48.2,48.2,100,30.01,1.2,Calm,Calm,-,N/A,Rain,Light Rain,0,2012-12-15 15:47:00
8:47 AM,51.8,51.8,100,30.03,4.0,Calm,Calm,-,N/A,,Mostly Cloudy,0,2012-12-15 16:47:00
10:47 AM,55.4,44.6,67,30.04,10.0,WNW,6.9,-,N/A,,Overcast,300,2012-12-15 18:47:00
12:47 PM,59.0,39.2,48,30.02,20.0,West,12.7,-,N/A,,Scattered Clouds,270,2012-12-15 20:47:00
1:47 PM,59.0,33.8,39,30.02,25.0,WNW,11.5,-,N/A,,Scattered Clouds,300,2012-12-15 21:47:00
2:47 PM,57.2,33.8,41,30.02,25.0,WNW,9.2,-,N/A,,Scattered Clouds,300,2012-12-15 22:47:00
3:47 PM,57.2,32.0,38,30.02,25.0,WNW,9.2,-,N/A,,Scattered Clouds,290,2012-12-15 23:47:00
4:49 PM,51.8,35.6,54,30.04,12.0,West,5.8,-,N/A,,Clear,260,2012-12-16 00:49:00
5:55 PM,50.0,37.4,62,30.05,12.0,Variable,5.8,-,N/A,,Clear,0,2012-12-16 01:55:00
6:47 PM,50.0,39.2,66,30.05,12.0,Variable,5.8,-,N/A,,Clear,0,2012-12-16 02:47:00
7:47 PM,50.0,37.4,62,30.06,12.0,Calm,Calm,-,N/A,,Clear,0,2012-12-16 03:47:00
8:15 PM,48.2,37.4,66,30.09,10.0,SE,3.5,-,N/A,,Clear,130,2012-12-16 04:15:00
8:35 PM,48.2,37.4,66,30.10,10.0,ESE,4.6,-,N/A,,Clear,110,2012-12-16 04:35:00
8:47 PM,48.2,37.4,66,30.09,12.0,Calm,Calm,-,N/A,,Clear,0,2012-12-16 04:47:00
8:55 PM,48.2,37.4,66,30.11,10.0,SSE,3.5,-,N/A,,Clear,150,2012-12-16 04:55:00
9:15 PM,48.2,37.4,66,30.11,10.0,SE,6.9,-,N/A,,Scattered Clouds,140,2012-12-16 05:15:00
9:55 PM,48.2,37.4,66,30.13,10.0,SE,3.5,-,N/A,,Mostly Cloudy,130,2012-12-16 05:55:00
10:15 PM,48.2,39.2,71,30.14,10.0,Calm,Calm,-,N/A,,Overcast,0,2012-12-16 06:15:00
10:35 PM,48.2,39.2,71,30.14,10.0,Calm,Calm,-,N/A,,Scattered Clouds,0,2012-12-16 06:35:00
10:55 PM,48.2,41.0,76,30.14,10.0,Calm,Calm,-,N/A,,Scattered Clouds,0,2012-12-16 06:55:00
11:15 PM,48.2,41.0,76,30.15,10.0,Calm,Calm,-,N/A,,Mostly Cloudy,0,2012-12-16 07:15:00
11:35 PM,48.2,42.8,82,30.14,10.0,SW,3.5,-,N/A,Rain,Light Rain,220,2012-12-16 07:35:00
11:55 PM,48.2,42.8,82,30.14,10.0,Calm,Calm,-,N/A,,Overcast,0,2012-12-16 07:55:00